Location: Observatoire
(46.1952°N, 5.3391°E)
Time: 23:02:02
(UTC+01:00)

A-11 Canister half - Pass Details

Date: 20 February 2026
Orbit: 1525 x 1683 km, 47.3° (Epoch: 5 March)

Event Time Altitude Azimuth Distance (km) Brightness Sun altitude
Rises 15:15:15 0° 207° (SSW) 4,754 12.9 24.7°
Reaches altitude 10° 15:18:39 10° 200° (SSW) 3,750 12.5 24.3°
Maximum altitude 15:26:58 36° 138° (SE) 2,248 10.2 23.3°
Drops below altitude 10° 15:35:09 10° 76° (ENE) 3,696 10.6 22.4°
Sets 15:38:28 0° 68° (ENE) 4,677 11.0 22.0°
